Theta_e
321 312 309 308 311 313 314 315 316 318 318 317 316 314 313 313 315 318 319 322 324 320 317 319 320 320 321 323 326 327 329 329 327 328 329 331 332 332 336 337 339 342 341 344 349 352 354 354 356 360 358 358 361 361 364 364 365 366 365 365 362 365 365 363 363 360 360 356 358 360 356 360 358 361 359 359 360 359 359 363 365 366 367 366 366 366
319 310 310 312 314 314 315 317 317 317 317 315 314 313 312 314 312 317 318 323 323 318 318 320 319 320 322 324 325 327 327 326 326 327 329 330 330 333 335 336 340 342 344 345 347 350 354 354 354 356 356 359 359 362 362 362 364 363 364 364 362 368 365 364 365 368 365 363 361 358 359 354 353 355 358 358 359 357 359 364 362 363 365 365 365 364
312 309 312 315 316 317 316 317 317 316 314 316 313 312 311 312 316 318 319 322 322 318 316 319 319 319 323 324 326 325 325 328 328 328 328 330 331 334 334 337 338 340 343 344 347 348 350 352 353 353 355 355 358 360 358 361 363 364 364 366 368 366 367 366 368 368 367 366 363 360 360 356 353 358 358 355 354 357 356 356 362 360 362 364 362 363
308 311 314 317 316 315 315 315 315 316 316 313 311 311 309 314 312 309 316 320 321 317 315 319 317 320 323 326 325 327 327 328 330 329 329 331 331 333 333 337 337 339 340 341 343 346 346 346 349 352 353 354 356 359 358 360 360 362 364 365 366 363 364 369 366 365 363 365 363 364 364 357 355 352 350 353 354 355 355 358 358 358 363 359 359 359
310 315 318 317 316 315 313 314 313 312 311 313 312 311 311 312 313 313 314 318 320 319 318 319 316 317 319 319 321 326 328 327 327 329 330 332 332 334 335 336 338 339 339 341 341 341 341 343 345 350 353 352 353 356 358 359 361 361 362 364 366 363 364 368 369 366 366 364 360 363 360 358 362 350 358 352 352 350 348 342 356 356 352 357 358 358
313 317 319 316 315 314 313 311 312 312 309 310 312 312 313 314 314 315 316 315 312 312 316 314 309 313 318 320 320 325 325 325 327 328 328 333 332 333 332 334 337 338 341 343 341 340 341 342 346 350 352 352 354 356 359 359 360 363 363 365 366 365 365 366 365 365 365 362 360 357 359 355 356 349 357 347 345 347 349 342 345 350 347 350 354 356
314 318 317 315 315 313 313 312 314 313 309 308 309 315 314 314 315 314 314 314 308 306 313 316 306 305 317 318 322 323 326 324 327 326 326 331 334 331 332 334 335 336 339 341 339 340 339 343 346 350 351 351 352 355 358 360 362 364 365 365 366 365 365 365 364 363 363 355 364 353 348 352 358 345 357 361 349 350 353 352 350 352 352 354 350 350
315 316 315 315 314 313 311 309 313 313 309 307 315 314 314 313 312 313 312 311 310 315 316 316 312 307 311 317 323 324 323 324 323 325 327 328 331 330 331 332 336 336 338 337 338 340 341 343 345 347 353 350 350 356 358 359 361 364 365 365 365 366 365 364 362 360 361 357 358 352 347 354 351 343 345 343 348 350 353 352 349 351 354 354 355 353
315 314 314 312 312 311 311 313 315 315 310 310 315 316 313 313 313 313 312 311 312 311 308 310 314 307 307 316 324 323 320 320 322 323 326 329 330 332 331 331 335 335 338 336 336 336 340 341 345 350 352 351 353 356 357 361 362 364 365 366 365 364 363 360 359 359 357 359 359 358 358 356 350 347 347 348 348 352 350 347 351 352 351 353 356 354
315 315 315 314 312 310 315 315 315 315 310 314 317 318 317 315 314 313 311 310 311 310 304 309 312 306 307 316 317 321 319 320 321 323 325 328 330 332 332 332 334 336 340 337 337 338 340 342 344 347 348 352 352 359 363 362 363 363 364 363 362 360 359 357 357 356 354 353 360 353 352 342 351 355 351 349 346 346 350 347 348 351 350 351 352 352
316 319 320 316 313 315 315 316 316 316 315 317 317 315 314 313 312 313 311 311 309 304 306 310 311 309 303 311 313 316 316 318 321 324 326 329 329 330 333 333 333 336 337 338 338 339 342 342 344 345 349 352 357 360 361 360 361 360 360 359 358 358 357 357 355 354 352 352 350 353 347 345 343 343 343 347 345 347 346 346 347 348 347 349 349 352
315 315 314 316 318 317 317 314 317 317 316 315 313 312 312 312 312 311 309 310 302 301 309 312 312 312 302 307 315 318 322 322 323 322 324 326 328 330 334 333 333 337 339 338 338 339 343 343 345 346 349 353 359 360 359 358 359 357 357 357 355 356 355 354 354 354 353 352 352 350 347 345 345 344 343 342 343 344 345 344 347 351 348 349 351 353
310 311 315 316 320 316 314 312 313 315 314 313 313 312 306 304 306 300 304 301 301 301 309 312 313 308 306 312 316 318 319 321 322 323 325 326 328 329 330 333 333 338 336 338 341 343 341 343 343 346 352 357 358 358 359 356 353 355 356 355 353 353 354 354 354 353 353 352 351 349 348 344 355 344 344 343 344 345 346 348 346 345 346 345 345 347
307 314 314 315 316 318 315 308 309 309 313 311 309 308 304 300 300 296 300 304 303 307 311 310 312 305 311 314 319 317 319 321 325 327 329 328 328 329 331 333 333 334 336 338 339 339 343 344 343 348 352 356 357 357 356 354 353 354 352 354 353 352 353 354 353 353 352 350 351 351 353 353 357 345 346 344 344 347 350 348 344 343 345 345 343 345
301 304 310 312 309 317 314 314 314 311 311 311 313 310 308 306 302 297 300 298 300 303 308 312 307 305 305 310 318 319 323 324 323 323 333 332 331 332 331 333 333 334 339 340 340 340 343 345 347 350 354 356 356 355 351 351 353 352 351 353 352 351 352 353 353 353 351 351 350 351 350 348 349 348 346 351 347 345 344 344 345 345 347 346 346 349
306 307 313 316 315 316 314 317 318 314 312 313 313 313 309 307 312 302 305 303 303 303 303 308 306 311 311 321 321 324 319 322 322 325 326 330 335 338 335 332 332 333 335 337 337 339 342 347 348 348 353 355 356 354 348 350 351 350 351 353 352 351 352 352 352 350 349 350 351 350 348 348 348 348 349 349 349 348 347 346 344 346 347 348 350 350
308 305 314 315 317 315 315 318 317 317 304 310 311 306 309 316 313 307 309 309 308 305 303 312 309 312 317 316 318 320 320 320 321 320 321 326 332 336 334 334 334 334 335 336 336 337 343 346 347 349 350 353 354 349 346 349 350 350 351 350 351 352 352 351 351 348 347 349 349 348 347 347 348 347 344 344 344 343 345 347 344 346 347 347 347 346
307 306 314 313 311 316 318 318 317 317 316 313 306 310 315 317 315 311 302 306 303 299 302 306 304 306 307 304 319 318 317 318 319 320 320 326 329 333 335 336 335 335 336 340 340 341 342 345 348 349 354 353 353 347 347 350 351 352 351 350 351 351 350 349 349 347 347 348 347 348 349 349 348 347 345 347 344 345 345 346 347 346 347 346 346 344
313 306 310 313 313 315 318 316 314 317 318 313 311 318 308 303 302 310 307 298 298 299 301 305 307 307 308 310 313 314 315 316 319 324 321 321 323 326 330 337 337 341 340 341 341 342 341 344 344 349 353 354 354 348 348 351 351 351 351 351 350 349 349 349 345 348 348 349 346 347 348 349 348 348 347 347 348 347 343 342 342 343 347 345 347 348
314 305 307 314 313 315 315 313 305 309 315 317 317 313 316 312 308 306 306 307 306 299 300 302 304 303 316 311 314 313 319 321 320 321 318 320 323 325 329 330 341 342 341 340 340 343 342 345 345 346 347 350 352 347 347 348 347 346 348 351 351 350 349 349 348 349 348 347 348 347 350 350 350 350 348 347 348 345 343 343 342 343 339 344 345 346
311 315 303 310 315 314 307 310 307 310 308 309 309 309 311 310 314 311 310 306 303 302 301 301 299 306 313 318 316 318 321 321 320 321 326 322 324 324 327 331 335 339 340 339 341 344 346 344 347 349 351 354 352 348 345 345 346 345 346 347 347 348 346 345 347 347 348 348 348 349 347 346 347 345 345 345 345 345 345 345 345 342 342 345 345 345
311 310 305 308 308 308 310 314 313 313 313 311 309 308 310 308 306 303 302 310 308 304 299 301 300 308 315 321 321 319 321 319 321 323 325 323 321 334 335 330 337 339 345 342 340 342 344 347 350 350 348 347 345 345 343 346 346 344 344 345 345 344 342 342 345 348 349 350 349 347 347 346 345 346 347 345 346 345 344 344 344 346 347 342 344 346
316 314 309 306 307 309 313 316 317 316 315 314 313 310 312 311 311 306 297 303 308 307 309 308 303 305 319 323 322 321 321 320 322 320 323 323 327 326 330 325 338 348 345 339 341 341 344 350 351 350 348 347 343 343 344 346 345 342 343 344 344 343 343 343 343 347 350 349 349 348 348 348 346 346 346 345 344 339 338 338 341 341 340 340 341 346
340 310 308 308 313 314 316 317 317 316 315 312 313 314 311 308 309 308 308 312 306 307 304 304 303 307 318 330 324 322 327 321 326 322 322 322 325 331 327 329 343 349 347 343 343 346 349 348 350 351 347 346 345 344 343 345 345 343 343 343 341 342 343 343 344 344 348 349 347 347 347 347 347 344 340 338 340 337 337 336 337 338 342 342 339 340
309 313 309 304 306 307 309 312 312 315 314 310 310 312 312 312 312 312 312 320 307 306 307 304 298 305 319 329 326 324 319 319 320 321 325 326 329 325 333 337 339 353 354 350 352 352 349 349 350 351 350 346 344 346 348 347 344 342 344 342 339 341 342 343 346 345 346 347 344 344 346 343 343 342 342 340 335 335 334 333 333 339 337 339 339 340
311 311 310 300 299 297 297 299 301 305 308 310 311 312 313 311 311 309 305 311 301 311 315 305 305 310 320 326 320 320 321 322 322 322 322 329 333 326 328 333 344 348 350 352 354 353 348 351 356 356 351 347 345 345 348 347 345 343 345 344 342 340 342 341 341 346 346 344 344 346 343 344 343 341 341 340 339 338 338 337 339 335 333 340 335 341
312 313 313 311 305 303 306 314 313 313 310 306 309 310 310 313 313 312 315 310 303 305 305 308 313 314 315 316 318 319 321 319 320 324 326 324 329 343 338 341 343 347 346 345 353 351 351 351 350 350 350 348 348 348 347 346 345 343 346 345 342 342 343 343 342 346 343 343 343 344 343 342 343 343 340 343 342 342 338 334 333 332 335 335 335 333
318 309 310 318 314 312 311 315 312 312 309 310 309 309 311 311 312 310 308 306 320 311 301 311 315 312 313 316 318 321 323 325 324 326 324 327 329 327 335 343 343 344 346 349 352 351 349 347 349 349 349 348 349 348 347 348 346 345 346 343 342 342 341 341 344 343 344 344 346 345 343 342 344 343 345 344 347 343 343 341 342 343 343 340 336 334
311 307 310 311 310 310 311 311 312 311 312 311 311 311 310 311 310 308 311 311 319 308 304 317 319 315 316 315 317 320 324 327 320 322 326 329 326 333 343 337 334 333 342 341 350 352 353 348 346 346 347 348 348 348 348 347 347 349 345 345 344 340 345 344 343 344 344 346 346 346 346 346 344 345 345 344 344 343 343 343 343 343 342 342 340 338
314 308 311 311 309 310 310 311 312 311 311 312 311 311 311 311 310 310 310 311 311 317 317 320 320 316 314 316 317 322 325 325 324 330 332 328 324 338 334 333 324 331 337 344 347 349 349 348 349 347 347 347 348 349 347 347 347 346 344 342 340 346 346 346 345 344 345 344 345 346 345 346 346 346 346 343 342 343 343 341 342 340 341 341 339 340
311 309 313 311 309 309 311 312 312 311 310 309 311 311 311 311 311 311 311 310 313 312 312 312 321 319 319 329 324 327 336 331 330 323 323 333 329 324 326 325 330 330 335 343 350 351 353 355 353 350 348 348 349 350 348 348 348 345 337 337 337 344 342 345 346 346 346 346 346 346 345 345 345 345 344 343 342 343 342 342 342 342 342 342 342 342
313 310 313 311 306 306 309 309 311 311 310 309 309 310 311 310 309 310 310 312 311 313 317 314 314 314 318 325 323 327 328 327 326 328 330 330 325 328 331 331 332 337 341 343 347 350 351 350 352 350 349 349 350 351 349 349 347 342 338 338 339 338 341 340 345 345 347 347 347 346 345 344 345 344 343 343 343 343 343 342 342 342 342 342 341 342
314 310 308 307 303 304 309 310 310 310 309 305 306 308 311 312 312 313 313 315 315 315 316 309 310 318 326 324 322 324 321 325 325 323 326 330 331 330 332 333 333 335 341 345 350 351 351 347 348 350 350 350 351 351 351 350 344 343 342 341 341 339 336 339 344 346 347 347 346 345 344 345 344 343 343 343 343 343 343 343 342 342 341 340 342 342
315 312 308 312 304 305 308 309 310 306 299 301 313 315 314 311 312 310 310 312 316 321 318 317 318 324 321 320 319 321 321 324 328 332 333 331 329 335 331 332 331 331 334 336 339 344 349 349 348 352 355 355 352 351 351 345 341 341 342 342 341 339 340 343 344 347 347 347 346 345 344 343 343 342 342 343 343 343 343 342 341 341 340 341 343 341
312 313 310 316 307 304 308 309 303 298 300 314 315 316 316 315 314 312 313 314 315 322 319 316 318 320 321 321 322 322 325 328 328 331 324 325 337 334 335 331 337 338 340 342 345 342 351 356 357 354 356 346 342 345 347 341 339 341 341 342 339 338 343 345 345 346 346 346 346 345 344 343 342 342 342 343 343 343 342 342 342 342 341 340 340 339
313 310 311 310 309 308 305 304 296 298 312 318 318 317 318 316 315 315 313 315 316 316 320 316 319 321 326 323 322 327 331 325 325 333 335 329 327 328 325 327 329 332 336 341 348 354 360 357 359 356 357 352 348 349 343 340 339 339 340 338 335 337 344 346 345 344 345 345 345 344 343 342 341 342 342 342 342 342 341 342 343 342 344 343 339 338
315 315 313 307 312 302 304 303 303 318 313 314 312 314 316 315 315 313 308 313 321 320 318 318 320 321 321 322 322 323 326 322 323 324 325 323 330 328 327 329 328 333 338 347 344 350 362 362 360 358 361 357 351 344 342 339 339 337 335 334 334 339 343 345 344 343 344 344 344 343 343 341 341 341 342 342 341 341 340 342 342 343 345 341 338 335
322 313 316 308 308 311 303 301 302 302 300 306 317 319 320 320 319 319 316 312 324 319 319 321 323 324 322 321 322 325 326 319 316 317 324 325 326 332 332 332 331 335 343 344 354 352 360 360 359 362 358 356 348 343 342 340 336 335 334 332 333 339 341 342 342 343 344 344 344 344 343 343 342 342 342 341 340 340 341 340 341 341 344 340 336 333
317 318 325 310 309 308 305 301 301 300 305 315 316 318 320 321 320 319 313 307 321 321 321 320 319 321 322 320 324 326 319 313 314 320 326 329 328 331 331 332 331 337 344 346 348 350 352 358 359 356 360 355 347 345 343 340 339 336 335 334 335 339 340 342 343 343 344 345 346 345 344 343 343 342 341 341 340 339 339 340 340 342 344 339 336 335
313 312 312 307 307 306 305 302 300 306 305 314 317 317 319 322 321 317 302 305 320 320 320 322 319 319 323 328 323 322 318 313 314 324 325 328 328 329 337 338 343 343 346 351 350 355 358 360 360 357 355 353 351 347 344 340 340 339 338 338 339 339 342 343 344 346 347 347 346 345 344 343 344 344 341 341 342 343 341 341 339 338 337 338 336 334
309 310 310 306 306 305 304 304 306 309 319 317 317 319 320 321 317 306 299 311 322 325 325 326 321 322 326 325 323 316 323 325 326 331 328 327 327 331 335 335 340 342 347 345 348 352 355 356 357 354 354 354 353 345 342 341 339 339 342 344 342 342 343 346 348 349 349 349 345 344 344 343 344 343 342 342 342 341 340 339 338 339 339 336 335 336
310 310 309 310 306 305 305 303 304 309 319 319 321 320 321 315 305 308 318 327 330 325 326 321 321 323 324 324 322 324 325 325 325 325 326 325 326 335 332 331 333 334 340 348 353 353 353 351 355 353 350 354 350 344 341 341 342 343 346 346 345 347 352 355 353 351 350 349 346 345 344 342 343 343 343 344 346 344 344 343 343 340 337 337 336 335
311 308 307 305 308 307 307 305 303 296 320 320 317 318 322 316 322 323 326 324 322 327 323 325 323 326 326 326 326 330 327 324 324 324 324 329 334 336 336 338 341 339 339 350 351 352 350 351 350 347 346 343 343 348 349 348 349 350 350 349 352 353 356 357 354 354 351 349 347 346 346 345 345 344 344 342 343 342 338 340 339 340 339 338 333 335
317 307 308 308 314 304 304 301 300 316 319 322 323 314 320 325 328 329 326 322 325 324 325 324 330 329 326 326 325 326 327 328 332 332 333 330 340 338 338 342 343 341 344 350 350 350 349 352 350 344 341 341 345 347 346 347 352 351 352 352 349 351 352 355 352 351 351 350 347 346 346 345 345 345 344 344 342 338 335 336 336 334 332 334 332 329
326 317 318 308 315 312 309 312 319 322 321 323 324 321 324 326 327 328 326 324 325 325 329 327 328 329 329 331 331 330 326 328 330 330 329 330 334 338 337 341 341 342 342 341 345 350 349 348 350 341 341 341 341 340 346 347 345 339 346 350 356 352 351 348 349 350 350 350 348 348 344 343 339 336 339 336 338 336 335 333 333 330 330 331 328 326
319 321 323 320 315 321 322 320 321 322 321 321 322 323 322 323 325 326 326 325 327 327 328 328 329 331 331 333 329 331 330 331 331 329 330 330 333 343 343 343 343 341 337 338 349 351 347 345 341 341 340 348 353 354 355 352 348 345 349 350 351 352 350 350 347 342 341 344 346 343 343 338 336 338 336 336 337 336 334 332 332 331 333 331 329 329
318 318 316 312 320 311 305 324 317 318 320 320 319 321 323 323 323 324 326 327 326 327 327 329 331 330 329 332 331 332 330 330 330 332 337 339 341 345 341 342 343 339 337 334 347 346 342 340 339 338 338 346 349 348 347 347 347 351 352 350 346 348 349 349 350 347 347 347 343 340 337 334 333 333 336 337 335 338 336 333 335 331 330 330 331 334
314 320 314 314 318 312 313 319 320 319 321 322 321 319 319 322 323 323 325 327 328 328 328 328 330 329 329 326 331 333 330 330 332 337 335 335 343 342 342 340 340 341 345 344 346 343 335 337 334 338 342 346 345 347 342 341 341 344 344 341 339 337 346 348 347 346 346 345 343 341 340 337 337 337 334 332 333 332 333 336 334 331 329 329 331 331
316 319 312 313 311 317 320 322 320 320 319 319 320 321 322 323 323 322 323 323 323 323 324 326 327 328 329 328 332 332 330 332 336 337 334 334 335 334 334 336 338 339 339 341 344 347 341 338 335 341 340 343 345 344 342 339 333 330 338 339 338 341 340 343 343 344 340 338 339 338 341 338 335 336 335 334 332 320 315 315 323 328 321 314 315 318
315 311 314 312 310 310 312 317 320 312 313 317 317 319 322 325 324 322 322 322 322 322 323 322 324 327 329 332 332 331 336 338 337 338 332 334 335 334 335 335 335 334 336 338 342 345 347 347 346 344 342 341 342 341 341 338 338 332 326 333 337 340 341 341 340 337 335 333 333 333 334 334 332 332 332 330 338 325 314 306 299 307 321 315 306 301
312 313 313 312 312 309 315 318 321 321 320 318 318 320 322 325 324 321 321 321 322 322 322 322 322 323 326 329 332 332 336 337 337 334 333 335 337 338 336 337 334 334 340 344 346 346 345 345 344 342 341 341 341 339 338 338 335 336 334 340 340 337 339 337 337 335 331 331 328 332 332 334 331 332 335 329 330 332 322 316 309 296 297 302 301 298
Wind_Speed
11 14 13 13 12 12 14 17 16 11 14 15 14 11 11 11 10 9 6 8 11 8 8 10 9 9 12 13 12 12 12 11 12 13 12 13 12 12 12 11 12 13 12 10 12 12 9 9 9 5 8 6 5 9 8 7 5 6 5 6 6 5 6 6 5 5 6 5 4 2 2 1 1 2 4 5 5 5 4 4 4 4 3 2 2 2
13 14 14 15 15 14 16 17 16 14 12 16 16 13 12 13 8 12 12 15 9 9 8 6 12 9 11 12 12 11 12 12 11 13 12 14 13 12 14 13 12 11 11 13 13 12 13 9 11 8 8 7 10 9 9 9 8 7 7 6 6 4 5 5 5 4 4 3 2 1 2 2 4 5 5 4 4 5 5 5 5 3 3 2 2 2
13 15 15 16 16 13 14 16 18 20 20 16 9 9 9 11 10 14 12 10 9 8 4 7 10 5 8 10 10 12 11 8 10 11 11 13 14 11 12 15 14 13 12 13 13 14 13 13 12 9 9 11 10 11 11 11 10 10 8 6 6 4 3 5 4 2 2 3 2 3 3 4 4 4 4 3 1 2 2 2 2 2 2 2 1 2
13 13 18 15 15 16 15 15 15 17 11 7 7 7 8 11 12 10 12 12 9 7 5 9 9 9 7 5 9 11 11 9 10 11 12 11 13 13 13 14 14 16 14 16 14 15 14 14 13 11 10 9 9 9 9 10 11 9 7 7 6 4 2 4 4 4 3 4 8 6 2 2 2 3 4 3 2 2 2 2 2 3 2 0 2 2
13 12 16 16 15 16 16 16 15 12 8 8 11 12 9 12 14 10 11 13 12 12 8 7 6 5 9 9 9 9 10 11 11 11 10 11 12 12 13 14 14 16 16 16 15 14 14 12 13 12 10 11 10 10 10 9 9 7 10 9 8 6 5 5 6 7 6 4 3 2 3 3 2 1 2 3 3 3 3 4 1 4 4 3 2 3
17 16 14 18 15 16 17 15 17 14 11 9 14 18 14 11 11 14 16 17 10 9 11 11 4 6 8 4 3 4 7 10 10 11 12 10 10 10 13 13 14 13 13 13 15 14 14 14 12 11 11 11 11 10 10 10 10 8 8 9 8 8 7 6 6 6 5 5 4 3 1 2 0 3 1 2 2 3 3 4 5 5 5 5 3 3
13 17 16 16 16 16 17 12 10 10 9 10 12 16 19 17 18 19 20 17 11 9 10 10 9 6 8 11 6 2 8 10 9 12 13 10 9 12 9 11 13 14 15 14 14 14 15 13 13 12 10 11 11 9 10 9 9 8 8 8 8 7 6 6 6 6 4 3 1 2 1 1 1 1 1 1 1 2 2 2 3 3 3 4 4 4
14 17 18 16 18 17 15 13 9 13 12 11 11 17 11 14 12 13 12 11 8 7 7 14 12 7 8 11 13 14 10 8 12 12 10 12 12 13 12 13 12 14 15 13 13 13 13 13 13 12 10 10 11 11 10 9 8 10 9 9 8 7 7 5 5 5 4 4 2 2 2 2 1 3 2 2 3 4 3 2 2 3 3 3 3 4
15 13 16 18 18 15 14 11 12 13 13 11 6 6 15 14 14 12 7 10 10 8 9 10 14 9 7 12 14 16 14 14 15 14 12 10 13 12 14 14 15 15 16 15 13 14 13 13 13 11 10 9 10 10 10 9 8 8 8 8 8 8 6 6 6 4 3 4 3 2 1 1 2 1 2 2 2 3 3 3 2 3 2 2 3 3
12 16 15 18 16 14 10 12 15 15 14 13 9 10 11 15 10 11 9 9 5 6 9 8 8 7 5 7 10 14 15 16 17 17 15 15 13 13 13 13 15 13 12 15 15 14 13 13 13 13 12 10 10 10 9 9 9 9 8 8 8 8 6 6 5 4 4 4 2 3 2 2 1 2 2 1 2 2 2 2 3 3 2 2 3 3
13 14 13 12 14 12 10 10 14 13 17 14 11 14 16 16 7 7 8 6 6 8 9 10 9 9 9 9 10 13 16 16 15 11 12 14 15 15 14 15 13 12 12 12 13 12 12 14 12 13 13 10 10 10 11 11 10 10 8 8 8 7 6 6 6 5 5 3 3 2 3 2 2 2 2 2 2 3 2 2 2 3 3 3 4 3
16 16 12 8 10 10 10 13 16 16 17 10 1 10 6 1 4 5 7 8 8 8 7 12 14 13 13 8 13 15 18 22 17 18 18 18 16 14 14 16 15 13 11 13 11 13 13 12 12 12 13 11 13 11 11 11 10 9 9 9 9 8 7 6 6 6 5 4 3 3 3 2 3 2 2 2 3 3 3 3 3 3 2 3 3 3
16 16 12 12 12 18 16 14 14 17 18 11 10 8 8 7 5 9 6 9 8 9 9 14 15 13 11 11 6 8 15 19 18 16 17 18 18 17 19 18 14 12 15 14 10 10 12 14 14 14 13 12 14 12 12 12 12 10 10 10 9 9 8 6 6 6 6 5 5 3 3 2 1 1 3 3 2 2 3 2 2 3 3 3 3 3
11 9 16 14 14 16 15 14 12 11 9 10 9 8 12 8 8 6 7 6 7 10 13 11 13 12 6 7 10 14 9 13 19 18 19 24 21 18 17 16 16 15 16 14 13 12 11 13 12 13 13 13 12 13 13 12 11 10 10 10 10 9 8 6 6 6 6 5 4 4 2 1 2 2 2 2 2 2 1 1 2 3 3 4 3 4
10 10 11 14 12 15 16 13 10 10 8 10 9 10 9 8 7 9 7 9 10 8 9 16 13 6 8 1 2 7 3 8 10 11 4 11 18 15 15 15 17 16 14 12 12 13 13 14 13 14 13 14 12 14 14 12 11 11 11 10 10 9 8 8 7 6 6 5 4 4 3 3 3 3 1 2 1 2 2 2 2 3 3 3 3 4
17 9 11 16 9 17 14 12 11 15 11 11 11 12 12 11 6 10 6 9 8 8 9 6 7 5 5 3 5 5 8 5 5 4 8 4 12 11 8 14 16 14 16 16 15 15 14 14 12 12 12 14 13 14 12 12 12 12 11 11 10 11 9 8 8 6 5 5 5 4 4 4 3 3 1 1 2 1 3 4 2 2 3 3 3 3
12 12 16 18 16 19 17 13 13 13 11 13 11 13 13 11 14 10 9 12 12 8 7 4 6 6 3 6 8 10 6 7 1 2 5 4 11 12 10 10 13 13 12 15 15 13 13 15 15 14 14 15 15 13 13 13 14 13 13 12 11 11 9 8 8 6 5 5 5 5 4 3 3 4 4 4 5 5 2 1 2 3 3 2 4 4
8 9 18 20 21 15 18 16 16 15 13 9 12 11 13 16 12 5 9 6 9 9 7 10 11 9 9 6 8 11 10 8 8 6 6 5 11 14 12 14 14 13 12 14 15 13 14 14 15 15 15 17 16 15 13 13 13 12 13 13 13 12 11 9 8 7 6 6 5 4 5 5 4 3 4 3 2 1 2 3 3 4 4 2 2 3
13 10 16 23 20 16 17 16 17 13 17 14 12 10 12 12 12 7 5 7 7 8 7 7 9 10 6 3 7 12 11 10 11 6 6 9 8 7 11 13 12 9 8 8 13 14 15 15 17 14 16 18 15 13 12 13 13 12 12 13 13 13 12 10 8 6 6 5 4 4 5 5 4 3 3 2 2 2 2 3 3 4 3 3 3 2
10 11 8 20 18 16 16 14 14 13 12 16 14 11 9 9 8 7 9 7 5 6 6 9 10 6 4 8 12 16 9 9 10 9 6 3 9 10 7 6 11 11 9 7 10 13 15 15 18 18 18 17 16 14 13 15 15 17 14 13 12 12 11 10 8 7 7 6 5 5 4 4 3 4 3 3 2 2 4 4 3 3 5 4 3 3
11 8 8 15 18 15 14 12 14 13 13 13 11 10 5 8 4 8 8 9 8 8 6 5 5 4 8 7 14 10 5 9 10 9 6 2 4 10 11 7 7 12 15 14 14 15 15 16 17 18 17 17 16 14 14 16 17 16 15 15 15 14 13 12 9 8 7 6 5 5 5 4 4 4 4 4 4 4 4 3 4 4 5 4 3 3
9 12 9 12 13 14 13 15 15 17 14 13 10 10 11 11 10 9 9 10 8 6 4 4 4 5 6 9 10 9 8 8 4 5 6 8 9 2 4 8 7 7 8 14 14 15 16 16 18 17 15 13 14 17 19 17 16 17 16 15 15 15 14 14 10 8 7 6 6 6 5 5 5 5 4 5 5 5 4 4 6 5 3 5 5 4
14 7 10 11 12 14 17 15 18 17 15 14 12 11 10 9 7 7 5 6 7 9 11 6 5 5 3 7 9 10 7 9 8 6 3 4 5 5 3 3 3 5 6 8 12 17 18 15 16 14 15 15 15 14 14 15 15 16 16 16 14 14 14 14 13 9 7 6 6 6 5 5 5 5 5 5 4 6 6 7 8 9 8 5 3 3
5 5 8 11 9 13 15 12 15 17 17 16 15 15 12 13 12 10 9 5 6 8 8 4 4 4 2 3 8 8 7 8 4 4 1 3 4 3 3 2 3 6 6 8 8 10 11 14 13 13 16 15 14 14 16 16 15 14 15 15 15 15 14 13 12 11 8 7 6 6 5 5 4 5 6 7 5 7 7 6 5 5 5 5 4 4
10 8 8 6 6 5 9 10 13 16 14 12 13 15 17 16 15 14 11 4 7 8 9 2 7 8 5 7 7 6 4 5 11 10 5 3 2 3 3 5 2 4 5 4 5 6 15 14 15 15 15 15 15 14 14 15 14 13 13 15 15 14 14 11 12 11 11 9 9 7 6 6 6 6 6 5 5 6 7 8 6 2 4 3 4 4
12 7 8 8 9 11 10 11 12 14 16 13 17 18 20 21 20 13 11 6 6 4 6 5 2 5 6 4 6 1 7 3 7 10 1 7 7 6 2 3 7 6 6 5 6 7 16 15 10 10 14 14 15 16 15 13 13 13 12 13 13 14 13 9 10 12 12 11 9 7 8 6 6 7 7 7 6 6 5 4 4 5 7 2 4 3
10 11 8 7 9 9 10 5 10 12 13 15 15 17 16 14 15 14 6 6 9 4 7 4 4 10 9 9 6 5 5 3 2 6 6 2 3 1 7 3 3 7 8 6 4 5 8 9 13 16 14 13 14 15 15 13 13 12 11 13 13 11 11 10 7 5 9 9 9 8 8 8 7 6 6 5 4 4 5 6 6 6 6 5 6 7
6 9 15 12 14 14 16 5 10 14 14 11 14 15 16 18 15 14 11 9 5 5 5 6 13 12 13 13 9 8 7 8 10 8 6 6 6 8 4 6 7 8 10 9 7 2 7 12 13 15 15 14 13 14 12 12 11 11 11 12 8 11 12 11 10 8 6 6 4 6 7 6 6 6 5 4 3 3 3 3 3 2 3 4 6 8
9 11 17 20 18 16 20 21 18 14 15 15 16 17 19 20 21 21 12 15 8 8 9 5 11 13 12 14 13 12 9 7 7 1 4 5 6 5 3 4 7 9 9 10 9 10 7 9 12 14 15 15 14 14 14 12 11 9 11 8 7 9 8 9 7 5 5 5 5 4 4 4 4 4 4 4 4 4 4 4 3 3 4 4 5 6
7 13 14 12 13 16 20 23 21 21 17 18 18 17 18 19 20 20 21 19 16 9 9 7 9 11 8 10 11 6 1 5 5 4 3 5 7 4 6 6 10 7 11 11 11 11 11 12 12 14 15 14 15 14 14 13 12 11 9 9 10 8 7 5 8 8 7 7 6 5 5 4 4 4 4 4 5 5 4 4 4 5 4 5 6 5
9 7 8 12 14 18 21 21 19 18 18 17 18 21 21 21 20 20 20 20 19 17 18 12 9 4 5 4 8 5 5 6 5 2 5 4 5 7 8 10 7 8 7 12 12 12 11 9 9 11 12 13 14 15 14 12 13 12 13 11 10 8 5 4 6 8 7 7 7 7 6 6 6 5 5 5 5 4 5 5 5 5 5 5 6 6
15 10 9 11 12 13 13 13 16 19 20 21 21 21 19 17 16 14 13 11 14 10 3 4 3 6 6 6 6 5 6 7 4 5 5 5 7 6 6 6 7 4 4 4 12 11 9 10 9 11 14 16 16 16 14 14 14 14 13 13 10 8 8 8 9 9 8 7 7 7 8 7 7 7 7 6 6 6 6 5 5 6 6 5 6 6
7 9 11 12 13 12 14 19 23 23 17 15 19 22 19 17 16 16 16 15 14 10 3 6 7 5 2 4 5 5 4 7 4 3 2 3 2 4 5 6 8 7 5 5 4 11 13 15 15 16 16 14 13 14 14 12 12 9 9 10 11 11 10 10 10 9 9 8 8 8 8 7 8 8 7 7 7 6 6 6 6 6 6 6 6 5
8 8 8 6 9 9 15 18 13 8 9 10 7 11 13 15 16 19 17 18 12 5 2 1 3 6 5 2 1 2 3 4 4 4 2 3 4 4 7 7 8 8 8 8 7 9 13 12 12 12 15 13 4 6 9 12 12 10 10 11 12 10 9 10 9 10 10 9 9 9 9 8 8 8 8 7 7 6 6 6 6 6 6 5 4 4
11 8 8 4 8 10 10 10 11 14 11 8 12 12 16 17 18 19 19 18 9 2 3 6 4 3 2 3 3 0 1 3 4 4 8 7 4 4 4 6 6 6 6 6 6 8 7 12 12 14 13 11 10 14 8 8 10 10 7 5 5 2 8 10 10 10 10 10 10 10 10 10 10 9 8 7 6 6 6 6 6 6 5 5 5 5
6 9 8 9 8 9 10 9 10 12 9 7 8 8 16 18 15 12 11 14 8 6 8 4 5 4 4 5 3 7 5 6 5 3 4 8 9 7 8 7 7 8 8 6 5 5 5 8 9 10 12 16 15 12 14 13 10 8 7 9 5 11 9 10 10 11 10 11 11 11 11 11 10 9 8 7 6 6 6 7 7 6 5 5 5 5
12 7 4 7 6 12 9 10 13 3 6 10 12 10 7 6 8 8 9 8 9 5 2 1 4 5 6 5 3 3 4 0 2 4 10 12 9 9 7 6 8 6 5 4 6 5 4 6 7 9 8 13 15 13 14 13 10 13 8 1 10 11 10 10 11 11 11 12 12 12 11 10 9 8 7 7 7 7 7 6 6 6 5 6 5 6
8 9 6 4 1 7 10 11 11 10 12 8 4 9 9 13 10 10 8 10 5 11 11 6 5 4 4 1 2 5 5 2 5 7 7 5 7 4 4 6 5 2 4 5 3 5 5 5 6 7 8 14 15 15 14 14 15 9 10 12 12 13 12 10 11 10 10 10 10 9 9 8 8 7 7 7 7 6 5 5 4 5 4 6 7 7
11 8 4 7 4 5 9 10 10 10 7 3 7 7 11 12 13 10 9 9 2 6 1 2 6 6 4 2 3 6 4 4 5 4 7 6 4 5 6 4 6 5 4 5 7 7 8 6 7 9 9 14 15 15 16 17 15 11 11 11 15 14 12 11 10 10 10 9 8 7 8 8 8 7 7 7 7 6 6 5 5 4 4 5 6 6
12 9 8 11 10 9 10 11 11 7 7 3 4 8 10 10 6 5 11 8 1 6 4 5 9 6 6 6 7 4 3 4 5 2 4 1 4 6 4 1 2 6 5 5 7 6 6 6 7 9 11 13 14 14 17 16 13 13 12 14 14 12 11 11 11 9 8 8 8 7 7 7 7 7 6 7 6 5 4 4 4 4 4 4 5 6
10 11 9 11 11 12 13 11 9 7 3 2 8 2 4 11 13 12 9 1 1 10 6 1 1 5 4 2 3 5 4 4 2 5 3 4 7 3 4 2 5 2 3 8 8 9 7 8 7 9 11 11 11 13 15 13 12 13 12 9 9 10 9 9 8 8 7 7 7 7 7 7 7 8 8 6 5 4 3 3 4 3 3 5 6 5
6 9 10 11 13 12 11 13 11 7 2 2 9 12 8 8 10 5 2 5 5 7 5 3 4 2 2 2 1 3 3 3 5 7 7 10 9 7 6 4 4 2 4 6 8 9 9 10 8 9 9 9 10 12 10 9 10 9 8 7 7 7 4 4 6 7 6 7 7 7 8 7 7 7 6 5 3 2 3 3 3 3 4 5 7 8
8 8 10 11 9 10 9 7 4 8 1 5 5 3 8 5 3 2 3 5 4 5 4 8 8 8 9 4 3 6 6 9 9 11 13 10 9 6 5 8 4 5 9 8 10 11 11 10 11 11 11 11 10 7 2 6 5 3 4 5 4 2 2 1 1 4 5 5 6 6 6 6 7 5 4 4 3 3 1 2 3 3 5 4 7 9
5 8 6 5 6 6 7 4 1 7 2 7 7 5 7 7 5 0 2 3 6 5 7 3 3 4 5 2 5 6 7 8 7 8 11 5 6 4 4 4 5 2 5 10 13 13 13 10 10 11 11 9 8 8 9 7 4 4 3 3 1 1 2 2 2 1 2 4 5 5 5 4 3 2 1 2 4 5 1 2 3 5 5 5 7 10
9 6 4 2 3 3 2 1 0 5 8 9 10 9 5 7 6 5 6 6 3 3 3 4 5 6 7 6 6 6 8 7 8 9 10 8 5 6 6 4 6 4 2 12 10 11 11 12 9 10 11 10 11 8 5 3 3 1 3 5 4 3 1 0 1 2 2 2 3 3 1 6 8 7 2 4 1 1 0 1 0 3 4 2 2 7
6 4 3 3 4 4 3 5 5 5 8 7 5 6 9 10 10 9 10 8 7 6 3 4 6 6 7 7 7 7 8 8 8 8 10 9 6 6 8 6 4 8 4 14 9 8 9 11 10 7 8 7 9 7 6 5 6 4 4 4 2 2 2 2 1 1 2 4 3 3 4 4 4 2 3 1 2 3 3 4 2 3 5 5 7 7
9 13 7 4 8 5 1 1 7 3 6 6 10 11 9 9 10 9 9 7 4 4 4 4 4 4 6 4 6 7 8 9 10 8 6 7 6 4 10 6 4 8 8 15 9 7 10 10 9 8 1 7 6 7 7 7 6 6 5 5 3 2 0 2 3 3 4 4 2 1 2 3 1 5 8 5 3 5 5 3 2 1 4 7 8 4
4 6 4 10 3 3 2 9 3 6 9 8 6 7 7 8 10 9 6 5 6 7 6 7 6 6 6 7 5 7 8 6 7 9 11 7 9 8 9 10 11 9 4 6 8 8 9 9 11 10 9 6 4 4 5 6 7 6 5 5 4 3 2 4 4 4 4 5 4 5 6 6 9 6 3 5 2 1 1 1 4 3 5 5 3 3
3 4 2 4 2 3 7 11 3 5 12 9 10 8 6 6 6 7 6 7 7 9 9 9 9 9 9 10 7 7 10 3 4 4 6 11 8 9 10 8 10 9 8 11 6 4 6 8 10 11 9 7 6 7 5 4 2 2 3 6 6 6 7 6 5 4 5 4 4 4 2 3 0 3 1 2 6 7 6 4 4 3 6 6 4 4
7 3 5 6 5 5 5 4 7 3 5 3 7 6 6 6 5 5 6 7 9 9 10 10 10 9 10 11 8 6 6 6 5 3 7 7 8 7 6 5 9 4 9 6 8 6 9 12 13 11 10 7 6 6 6 5 4 1 2 6 8 6 2 3 2 4 5 4 5 4 4 2 1 3 4 2 1 5 6 10 10 8 5 5 7 10
3 8 7 4 1 3 5 5 6 4 8 4 4 3 3 4 4 4 6 7 8 8 9 10 9 10 9 9 9 6 5 5 3 1 4 7 8 8 7 9 8 9 11 7 4 6 8 10 11 11 9 7 5 5 6 5 6 3 6 5 5 5 3 2 3 3 4 4 2 5 4 4 3 4 3 2 2 2 4 4 7 13 13 11 7 8
Wind_Direction
172 213 204 213 226 201 209 218 241 220 186 180 198 224 181 205 203 151 234 254 176 193 194 203 141 191 165 163 182 184 179 181 171 164 171 167 166 176 172 169 173 165 171 168 166 165 162 173 149 194 135 184 149 157 157 148 162 155 183 176 178 181 160 158 164 178 173 191 198 219 210 269 339 265 240 248 247 243 243 243 221 207 228 253 264 259
206 213 211 210 227 190 213 210 228 250 225 182 188 204 194 186 216 171 187 221 173 239 169 202 153 194 170 166 180 187 181 186 177 170 177 166 168 176 175 167 174 173 159 175 153 174 164 173 170 161 153 173 170 161 167 152 178 164 185 172 167 165 151 163 175 177 181 174 99 98 180 210 227 221 224 236 238 241 237 219 207 211 224 240 254 263
209 215 214 204 227 202 216 220 223 214 224 223 214 195 221 177 198 176 190 184 184 191 226 181 134 169 221 173 182 185 189 181 187 177 180 169 169 177 179 160 172 169 160 172 163 174 168 171 170 163 182 175 178 164 173 167 171 168 167 173 148 149 158 181 156 104 113 65 39 177 196 217 235 225 219 227 315 347 294 308 279 296 217 208 271 291
211 209 223 208 220 223 193 230 254 262 254 335 246 236 222 181 189 174 187 181 182 216 191 198 186 180 171 221 194 191 190 185 190 182 184 174 169 178 179 170 175 160 172 173 174 174 176 171 168 177 178 168 171 164 171 168 165 159 170 165 150 143 176 156 131 164 152 169 176 208 227 252 288 347 339 302 242 276 318 306 324 276 264 40 264 256
212 210 220 220 208 237 219 192 220 237 239 224 247 250 196 225 198 191 169 184 195 203 243 182 216 190 174 199 194 205 197 190 191 188 195 176 181 181 180 174 178 166 174 167 177 174 177 172 170 172 175 165 167 171 170 169 168 169 164 165 161 155 191 177 171 160 166 180 164 176 213 242 224 307 273 16 325 347 331 305 320 39 6 346 349 356
204 216 212 234 204 216 243 206 201 212 229 199 233 252 255 235 189 166 168 177 194 224 190 225 192 198 147 231 292 322 208 216 192 188 197 177 178 183 185 179 176 171 170 165 174 178 172 176 158 177 170 166 163 172 165 170 168 165 158 159 160 162 170 163 162 150 163 181 173 157 136 314 127 236 18 275 357 326 352 347 348 350 355 344 346 339
214 197 210 224 230 211 221 254 183 219 239 223 196 239 258 259 159 172 161 180 197 217 173 211 230 210 160 175 181 200 297 246 205 196 195 184 179 183 198 177 176 174 169 179 179 172 174 172 165 169 171 165 163 167 163 167 160 158 153 155 153 152 156 158 165 161 160 136 70 156 302 80 64 263 241 130 279 294 307 321 355 323 340 1 345 329
243 199 193 208 228 227 214 216 213 193 233 237 203 191 255 270 243 233 215 188 220 187 229 201 207 233 169 196 182 171 216 256 247 203 206 191 189 186 197 188 176 183 171 182 177 176 167 170 168 170 170 171 164 163 165 154 159 148 153 157 150 147 148 152 148 148 160 148 172 131 213 106 17 300 349 5 281 234 218 228 345 339 315 319 343 305
219 226 194 199 216 225 222 194 213 202 222 237 257 188 201 244 251 286 244 173 201 201 225 232 210 227 218 178 179 181 200 210 237 221 200 212 192 197 196 201 179 193 170 181 178 185 165 171 164 165 169 168 166 152 156 146 146 147 156 150 143 145 145 145 153 149 141 121 160 121 87 120 206 283 351 299 329 22 18 317 280 277 309 314 294 324
211 238 203 208 204 218 220 187 218 199 224 229 250 260 246 205 251 253 242 283 223 220 240 241 204 241 244 116 187 189 207 212 216 209 205 206 205 198 202 204 191 185 165 178 183 182 172 165 171 165 170 175 159 142 146 146 150 153 148 144 149 144 142 148 145 142 147 138 103 143 179 238 235 177 203 290 297 298 297 312 278 281 303 320 332 301
204 214 269 203 206 220 200 199 222 206 230 224 204 236 237 173 215 231 283 293 279 252 248 246 237 199 239 202 196 194 206 211 199 206 215 201 204 198 200 205 198 177 173 173 183 179 164 168 166 168 172 171 144 149 154 155 156 151 149 151 151 150 144 152 151 155 147 154 172 172 188 228 243 272 285 282 269 272 280 277 317 307 328 347 281 297
216 187 218 206 215 213 208 205 212 211 215 243 234 243 281 85 184 273 225 224 255 251 256 241 239 226 246 216 204 212 200 194 188 197 204 207 200 194 196 204 208 179 168 171 186 178 160 163 165 171 169 162 146 157 160 159 155 152 152 157 157 154 153 156 158 159 159 174 177 196 182 230 218 283 309 299 295 306 310 318 320 346 322 269 300 303
228 198 187 194 208 223 189 221 200 214 202 186 224 210 236 207 187 208 220 232 233 256 233 241 234 238 236 248 218 212 213 196 185 194 196 199 195 196 200 197 204 177 179 175 186 179 165 167 173 168 165 152 158 160 165 160 161 156 157 163 162 160 158 159 163 166 174 181 171 187 196 203 23 1 294 284 291 286 266 328 325 311 302 304 302 303
225 192 169 198 195 219 216 206 187 209 186 176 207 224 214 220 189 231 218 239 263 237 241 258 268 277 302 223 210 213 216 180 171 188 200 194 197 194 192 183 193 188 177 183 182 188 172 167 177 164 165 157 162 164 164 163 160 157 163 165 167 161 160 164 169 178 176 184 177 174 169 238 115 210 228 298 285 274 7 28 277 283 304 312 297 309
203 192 186 202 194 188 235 236 192 194 179 203 219 224 209 225 197 200 233 234 217 248 231 220 223 227 242 72 83 264 265 179 162 190 186 164 184 188 191 177 189 192 171 178 181 185 175 173 173 163 164 160 164 168 168 166 156 161 164 167 166 161 167 170 180 178 179 181 182 162 180 183 165 219 202 235 292 341 303 284 299 305 294 302 318 320
217 212 182 207 203 173 221 227 195 181 202 198 212 234 236 210 201 238 223 218 239 241 231 229 248 132 203 44 242 40 65 42 159 122 113 125 115 124 155 172 184 193 186 183 184 187 181 173 170 170 167 167 166 171 171 166 159 166 165 167 169 164 170 176 181 174 183 179 165 173 179 183 203 188 209 188 199 205 218 239 249 300 294 283 295 307
196 216 178 184 219 172 215 212 228 169 215 169 204 223 249 234 199 214 240 263 288 288 261 295 249 225 220 168 221 183 192 136 187 206 177 159 124 140 156 175 187 205 203 177 186 184 180 176 176 176 172 174 175 173 176 170 165 167 162 168 168 166 169 176 183 171 186 173 168 179 174 193 206 188 201 221 221 213 227 309 291 260 277 298 268 253
205 213 173 179 197 188 196 225 238 166 240 170 201 210 215 270 298 241 249 211 221 246 240 204 224 232 187 260 159 173 168 167 153 195 222 164 129 152 171 178 190 201 204 175 176 178 186 181 176 181 172 177 178 177 176 169 167 166 164 170 169 166 169 180 179 176 181 170 177 175 179 189 207 202 216 226 245 212 247 249 229 245 240 265 336 339
238 231 177 179 189 187 188 213 235 228 200 237 202 174 223 179 223 236 301 259 256 237 268 250 260 259 239 156 167 147 162 164 163 168 190 146 176 183 172 191 190 191 203 176 176 181 187 179 181 176 177 178 180 178 171 165 168 166 167 173 172 168 172 175 174 178 171 173 176 179 181 190 182 210 234 222 220 229 252 282 287 279 297 300 274 274
198 255 175 168 188 181 188 197 220 217 223 235 255 255 225 267 218 202 188 262 268 266 206 234 222 254 220 152 176 139 178 156 132 131 159 211 165 171 188 202 163 178 190 205 194 185 185 175 180 173 178 182 181 178 166 168 176 176 173 174 172 166 168 170 175 173 169 179 181 173 175 178 187 187 203 211 229 219 224 237 274 296 289 282 292 282
241 230 238 162 186 184 195 180 220 211 206 217 231 254 234 244 211 222 169 204 215 249 245 269 240 82 40 89 121 145 146 120 126 140 129 159 281 171 168 184 180 180 188 191 194 186 185 179 180 183 179 182 183 174 172 179 182 179 175 178 175 169 169 172 176 170 174 172 180 173 170 182 184 200 201 215 213 218 232 238 239 247 245 239 239 250
236 189 231 154 188 212 207 177 214 227 210 213 206 228 238 197 234 219 200 180 231 236 256 245 252 85 73 106 118 121 110 127 101 71 130 179 195 296 103 171 187 203 181 182 184 181 183 185 181 182 179 183 189 185 183 183 183 181 181 178 179 174 174 175 175 168 171 174 170 183 180 193 193 199 204 213 210 216 223 233 243 234 237 234 226 219
239 146 206 185 188 216 223 184 188 235 247 230 201 216 231 269 224 225 247 186 203 237 242 237 262 78 103 96 110 121 166 128 135 161 183 175 94 123 176 216 194 179 183 214 201 180 188 175 177 176 168 179 189 192 187 183 189 183 181 178 179 175 176 175 173 167 164 172 171 175 181 196 201 205 210 215 218 230 229 232 229 224 229 234 243 230
244 254 209 219 199 224 208 200 191 197 242 249 218 214 212 232 244 243 225 235 237 220 228 220 231 131 162 98 114 86 58 84 102 97 30 313 83 75 78 45 354 154 147 223 221 163 164 174 173 170 179 183 192 194 193 188 188 182 181 178 179 176 176 176 167 167 168 169 174 175 180 189 210 216 216 216 216 229 242 261 281 264 241 213 232 238
233 178 278 226 192 198 219 184 228 189 200 244 241 208 215 214 221 248 261 176 239 241 247 199 218 126 65 46 67 112 164 195 153 162 176 229 124 194 196 146 210 108 113 166 256 162 155 169 176 179 180 184 190 195 188 184 185 180 177 177 180 175 174 181 158 163 168 175 178 180 180 192 203 213 220 240 245 245 243 246 262 9 335 288 281 282
223 173 187 245 218 196 196 205 211 210 191 206 246 241 202 210 204 207 225 205 231 190 231 234 207 109 129 118 100 165 107 10 348 343 305 195 156 170 137 169 139 137 157 194 221 166 165 176 175 165 180 187 191 192 187 183 183 180 174 177 178 177 170 169 146 157 164 173 178 175 182 194 206 213 216 218 225 241 269 311 324 278 265 281 306 306
204 214 213 221 257 228 219 217 211 251 186 205 209 243 262 244 232 223 207 215 214 179 203 177 223 141 171 171 175 194 169 221 187 200 213 325 318 220 158 184 180 154 154 181 243 209 161 158 179 188 192 193 195 186 183 182 178 178 172 176 180 171 155 133 133 164 160 173 176 175 182 189 197 210 224 216 218 237 242 246 262 285 337 330 315 323
240 226 223 199 214 257 258 229 204 215 252 207 211 224 236 261 255 245 237 238 124 143 217 168 191 202 182 195 202 228 205 178 183 178 222 250 246 248 250 169 186 153 158 176 176 215 189 183 185 190 194 198 196 185 180 180 176 173 171 175 162 123 131 143 154 166 162 161 168 162 173 190 192 197 205 223 242 230 238 262 282 302 313 326 304 287
228 247 236 223 210 223 253 265 266 253 220 232 229 224 223 217 243 256 247 242 219 202 229 172 187 198 182 202 186 201 218 224 195 136 9 18 347 323 277 244 189 191 175 183 180 167 209 218 195 196 195 195 185 180 178 176 174 164 167 165 133 127 129 126 139 137 150 161 167 159 171 180 195 191 193 204 203 212 227 235 239 246 248 255 277 272
241 245 257 224 239 216 222 244 250 253 246 221 231 242 237 236 222 229 252 257 243 229 235 183 172 218 222 232 245 259 71 308 27 16 316 277 277 269 266 257 271 233 181 179 186 181 177 220 212 194 193 189 183 178 177 175 170 162 146 131 129 115 116 121 146 156 175 171 171 167 177 188 194 193 196 202 207 214 219 223 218 235 238 242 257 271
225 216 235 239 228 233 224 216 234 249 258 253 231 236 235 222 227 226 229 235 249 253 238 222 136 208 221 215 241 263 17 56 98 182 269 321 333 299 301 299 259 244 219 180 181 182 165 176 202 182 181 184 184 180 178 171 166 152 148 143 133 131 132 124 155 175 169 175 171 173 181 187 193 197 200 205 216 215 222 223 229 233 232 231 240 258
184 235 224 233 253 246 251 250 235 236 238 248 255 250 249 252 236 231 236 227 235 235 228 334 200 203 210 204 219 165 197 133 179 187 218 197 235 238 245 252 274 286 289 231 173 169 173 171 187 196 187 189 187 179 174 170 170 159 155 143 134 129 156 181 184 168 175 178 173 175 186 189 193 196 201 207 211 215 214 225 231 234 235 233 237 241
183 210 225 223 230 239 241 240 234 233 237 247 245 240 238 237 245 247 244 239 233 248 174 221 241 245 25 35 337 314 249 180 198 232 335 309 15 323 304 305 305 292 257 284 202 176 173 185 190 197 194 191 187 180 176 162 153 137 126 130 143 167 179 192 171 168 175 184 179 184 189 191 197 197 203 204 209 208 218 224 230 238 240 242 240 239
232 219 239 259 253 239 240 256 279 305 262 247 280 305 305 274 248 253 260 263 245 200 226 119 56 54 66 63 308 323 323 349 359 20 353 302 278 249 249 266 279 271 268 250 244 212 188 191 193 191 190 181 152 182 167 155 144 141 148 153 173 168 188 184 166 170 181 182 186 186 191 197 198 203 202 205 203 208 219 224 235 244 252 254 249 241
220 196 237 245 246 250 247 255 262 251 248 269 272 277 279 283 283 274 266 269 278 124 112 135 145 231 39 275 220 97 341 309 281 259 269 270 287 280 287 270 253 268 264 266 249 237 199 184 191 176 183 116 174 202 153 137 139 145 150 153 91 185 204 172 170 173 182 186 188 191 194 196 200 201 202 200 204 210 218 229 230 236 238 246 246 245
217 214 223 229 240 257 260 235 239 241 254 312 331 284 259 263 281 308 312 317 287 246 121 177 215 237 228 216 182 216 211 244 228 219 243 253 251 255 254 250 243 234 235 239 239 227 194 180 186 193 177 152 177 179 154 151 145 124 76 76 187 226 208 174 175 180 182 190 191 196 196 196 197 197 196 197 202 210 223 225 228 228 230 234 243 247
239 237 226 259 216 245 239 241 250 32 280 252 249 257 278 268 281 281 294 298 323 323 275 153 167 198 206 217 205 262 268 97 344 298 272 256 218 216 239 243 259 238 204 203 229 202 184 170 183 190 173 152 156 149 159 133 89 58 59 175 244 230 201 178 183 186 190 194 195 197 195 195 196 195 195 197 202 215 223 229 229 228 216 238 240 245
206 238 154 191 296 273 249 242 242 234 247 236 245 262 268 276 281 278 279 262 352 297 267 225 157 188 228 283 35 323 63 302 264 277 269 307 124 115 234 277 263 233 154 193 181 171 165 170 180 181 176 153 146 147 145 106 96 137 183 211 231 218 191 193 193 195 195 199 199 193 191 190 196 194 195 196 209 217 229 232 243 241 216 230 239 243
217 212 174 188 196 255 252 256 243 251 251 269 212 222 260 259 250 266 252 253 127 301 337 228 219 194 200 200 236 199 235 248 272 273 52 317 310 194 208 218 255 151 164 176 179 175 177 177 180 187 157 148 148 154 136 130 154 174 190 206 214 202 194 196 198 197 199 197 193 193 188 191 189 198 195 201 205 213 221 224 228 235 215 227 241 249
229 212 209 225 223 221 237 237 241 234 266 258 133 212 224 232 249 267 256 238 81 287 287 254 246 220 179 199 218 253 223 254 253 337 26 324 193 241 103 189 25 104 159 164 175 159 163 165 184 188 159 160 154 151 136 149 164 185 197 202 197 193 195 194 197 192 191 189 188 189 195 191 192 190 200 205 208 201 218 238 238 249 261 264 253 249
219 236 222 232 225 224 229 251 259 255 129 172 270 163 167 275 260 238 232 32 216 222 213 234 13 111 111 188 160 247 231 255 317 293 290 322 311 89 95 84 78 313 214 190 168 151 167 166 184 168 164 156 152 132 137 149 168 192 199 187 192 201 197 187 182 184 182 183 185 191 196 194 193 196 195 204 206 208 226 229 254 253 259 277 283 285
253 256 232 233 239 236 231 234 242 254 86 299 44 341 338 195 211 213 23 272 318 10 72 212 160 158 217 180 255 256 331 31 287 302 285 269 257 128 171 178 162 211 274 249 145 158 160 170 158 169 151 122 131 134 148 168 189 189 176 185 198 207 198 151 168 175 173 183 187 195 200 196 200 196 193 184 157 204 220 227 249 227 226 219 243 252
197 220 228 232 233 243 242 237 232 247 17 282 74 221 49 14 323 353 341 22 356 11 347 37 353 22 348 345 344 346 331 321 323 316 321 335 336 124 144 128 168 201 223 183 161 169 164 159 159 159 143 150 143 82 130 197 169 163 168 197 186 163 171 147 149 160 178 181 189 205 209 207 195 166 143 145 173 195 151 348 320 335 316 339 308 285
102 227 236 268 17 295 260 244 355 354 104 33 54 62 68 142 195 139 341 48 341 10 10 11 306 307 288 316 299 298 304 305 304 300 299 288 84 118 137 146 139 180 283 209 178 170 168 148 161 146 136 157 133 159 180 186 164 151 180 216 206 199 182 164 165 153 184 192 196 202 212 204 146 109 145 126 94 84 73 319 5 356 344 12 331 345
15 22 41 9 353 45 36 81 345 16 21 73 74 60 86 103 66 45 77 68 352 76 7 324 21 353 1 344 324 306 293 276 281 298 294 280 219 168 163 169 156 148 59 275 209 170 160 156 155 139 139 147 150 179 193 146 122 79 333 24 23 56 50 84 238 49 333 248 212 230 320 26 29 2 317 72 346 124 48 257 236 290 296 327 271 250
270 242 278 15 69 117 68 42 37 39 42 55 85 75 60 66 64 56 46 56 31 15 357 8 4 354 344 340 316 313 300 308 301 293 293 290 265 162 163 163 135 88 84 279 238 169 135 126 140 133 132 103 89 84 81 98 107 111 91 94 35 48 66 285 134 159 274 306 338 48 82 160 167 146 45 265 161 127 245 245 263 333 338 332 279 248
347 351 315 218 158 219 151 208 104 100 70 61 74 65 59 53 58 52 51 37 43 9 10 42 352 336 294 284 270 273 281 294 299 289 282 281 290 170 149 153 149 129 127 249 241 123 116 112 99 107 112 103 121 119 127 125 114 105 111 122 135 109 44 205 247 201 201 188 117 117 134 102 56 226 208 178 193 217 206 178 167 118 280 251 244 225
260 285 312 359 35 290 132 201 205 83 84 59 55 70 56 56 49 47 51 52 38 34 15 7 344 327 343 299 324 307 309 313 335 6 321 345 29 50 60 46 19 359 324 252 238 154 141 135 140 137 161 149 130 120 106 121 122 160 152 139 149 107 173 228 209 234 235 237 215 200 195 190 205 202 199 217 203 344 352 148 148 180 239 271 314 311
299 289 341 283 331 88 351 11 49 139 51 63 74 57 47 40 47 55 35 38 31 28 18 10 11 353 341 332 344 345 325 348 65 3 1 66 47 44 37 29 46 16 306 284 290 77 127 145 148 144 135 123 116 114 114 96 114 56 157 193 207 168 192 178 186 216 245 237 235 250 180 145 88 215 243 10 78 71 50 4 354 70 88 40 12 17
264 355 351 325 348 7 20 329 345 137 108 327 48 39 39 42 31 53 39 32 28 21 13 8 4 3 347 346 345 339 18 18 33 49 77 96 97 98 93 86 81 56 268 276 307 39 73 86 96 100 101 100 108 109 108 99 83 53 26 45 58 75 79 121 172 212 229 235 236 240 80 51 261 29 4 336 101 113 90 58 53 38 67 84 46 50
213 171 210 79 319 171 147 87 42 95 123 74 55 38 19 45 25 25 40 26 21 9 11 3 355 356 352 339 341 347 30 5 11 88 108 110 112 124 149 133 146 193 207 171 153 97 91 92 101 104 104 101 97 109 126 136 133 111 89 63 56 80 107 133 204 222 255 254 312 79 134 150 162 204 156 248 329 95 140 127 56 53 57 73 69 61